Location: Parkway Village
(35.0643°N, 89.9062°W)
Time: 13:47:55
(UTC+00:00)

BlueWalker 3 - Pass Details

Date: 22 August 2024
Orbit: 475 x 487 km, 53.2° (Epoch: 17 September)

Event Time Altitude Azimuth Distance (km) Brightness Sun altitude
Rises 01:20:47 0° 183° (S) 2,516 5.3 -8.8°
Reaches altitude 10° 01:23:45 10° 157° (SSE) 1,646 4.1 -9.3°
Maximum altitude 01:25:45 14° 124° (SE) 1,416 3.6 -9.7°
Enters shadow 01:26:15 14° 115° (ESE) 1,433 3.6 -9.8°
